TimeCST,TemperatureF,Dew PointF,Humidity,Sea Level PressureIn,VisibilityMPH,Wind Direction,Wind SpeedMPH,Gust SpeedMPH,PrecipitationIn,Events,Conditions,WindDirDegrees,DateUTC
12:53 AM,15.1,12.0,88,30.11,3.0,NE,6.9,-,0.00,Snow,Light Snow,50,2012-12-28 06:53:00
1:53 AM,16.0,12.9,88,30.11,5.0,NNE,5.8,-,0.00,Snow,Light Snow,30,2012-12-28 07:53:00
2:53 AM,16.0,12.9,88,30.12,5.0,North,5.8,-,0.00,Snow,Light Snow,360,2012-12-28 08:53:00
3:53 AM,16.0,12.9,88,30.12,5.0,North,5.8,-,0.00,Snow,Light Snow,350,2012-12-28 09:53:00
4:15 AM,15.8,12.2,86,30.04,3.0,NNW,5.8,-,0.00,Snow,Light Snow,340,2012-12-28 10:15:00
4:42 AM,15.8,12.2,86,30.04,2.5,NNW,8.1,-,0.00,Snow,Light Snow,340,2012-12-28 10:42:00
5:53 AM,14.0,10.9,88,30.12,4.0,North,6.9,-,0.00,Snow,Light Snow,350,2012-12-28 11:53:00
6:27 AM,12.2,10.4,92,30.05,4.0,NNW,6.9,-,0.00,Snow,Light Snow,340,2012-12-28 12:27:00
6:53 AM,12.0,9.0,88,30.12,7.0,NNW,9.2,-,0.00,,Overcast,340,2012-12-28 12:53:00
8:11 AM,6.8,3.2,85,30.06,4.0,NW,8.1,-,0.00,,Overcast,310,2012-12-28 14:11:00
8:46 AM,5.0,1.4,85,30.07,6.0,NW,10.4,-,0.00,,Scattered Clouds,310,2012-12-28 14:46:00
8:53 AM,5.0,1.9,87,30.15,7.0,NW,9.2,-,0.00,,Partly Cloudy,310,2012-12-28 14:53:00
9:31 AM,6.8,3.2,85,30.08,6.0,NW,9.2,-,N/A,,Mostly Cloudy,310,2012-12-28 15:31:00
9:53 AM,7.0,3.9,87,30.17,6.0,NW,8.1,-,N/A,,Overcast,320,2012-12-28 15:53:00
10:53 AM,12.9,9.0,84,30.17,6.0,NNW,9.2,-,N/A,,Overcast,330,2012-12-28 16:53:00
11:09 AM,12.2,8.6,85,30.10,6.0,NW,8.1,-,N/A,,Overcast,320,2012-12-28 17:09:00
11:53 AM,14.0,10.0,84,30.17,7.0,NW,9.2,-,N/A,,Overcast,310,2012-12-28 17:53:00
12:09 PM,14.0,10.4,86,30.09,6.0,NW,8.1,-,N/A,,Overcast,320,2012-12-28 18:09:00
12:53 PM,16.0,10.9,81,30.15,6.0,NNW,10.4,-,N/A,,Haze,330,2012-12-28 18:53:00
1:53 PM,17.1,12.0,81,30.12,7.0,NNW,12.7,-,N/A,,Overcast,330,2012-12-28 19:53:00
2:16 PM,17.6,12.2,79,30.05,6.0,NNW,12.7,-,N/A,,Haze,330,2012-12-28 20:16:00
2:53 PM,16.0,10.9,81,30.14,7.0,NW,11.5,-,N/A,,Overcast,320,2012-12-28 20:53:00
3:53 PM,15.1,10.9,84,30.14,5.0,NW,10.4,-,0.00,,Overcast,310,2012-12-28 21:53:00
4:53 PM,14.0,10.0,84,30.16,4.0,WNW,6.9,-,0.00,Snow,Light Snow,300,2012-12-28 22:53:00
5:53 PM,14.0,10.0,84,30.17,8.0,NW,5.8,-,0.00,,Overcast,320,2012-12-28 23:53:00
7:53 PM,10.9,6.1,81,30.18,10.0,West,3.5,-,N/A,,Overcast,270,2012-12-29 01:53:00
8:09 PM,10.4,6.8,85,30.10,10.0,West,4.6,-,N/A,,Overcast,270,2012-12-29 02:09:00
8:53 PM,10.0,7.0,87,30.18,9.0,Calm,Calm,-,N/A,,Overcast,0,2012-12-29 02:53:00
9:53 PM,9.0,6.1,88,30.19,9.0,SSW,3.5,-,N/A,,Mostly Cloudy,200,2012-12-29 03:53:00
10:53 PM,6.1,3.0,87,30.19,7.0,SW,3.5,-,N/A,,Clear,220,2012-12-29 04:53:00
11:53 PM,6.1,3.0,87,30.19,7.0,SW,4.6,-,N/A,,Clear,220,2012-12-29 05:53:00